Location: Carlisle
(34.5501°N, 84.5969°W)
Time: 23:12:02
(UTC+00:00)

Hubble Space Telescope - Pass Details

Date: 04 December 2021
Orbit: 534 x 538 km, 28.5° (Epoch: 18 January)

Event Time Altitude Azimuth Distance (km) Brightness Sun altitude
Exits shadow 09:53:19 14° 144° (SE) 1,547 3.5 -31.5°
Drops below altitude 10° 09:54:08 10° 137° (SE) 1,798 4.0 -31.4°
Sets 09:56:35 0° 124° (SE) 2,660 5.2 -30.9°
